FW2556 Weather Reports


Display with metric or nautical units.
time (UTC)temp
F
wind
direction
speed
MPH
gust
MPH
rain 1hr
in
rain 24hr
in
rain mn
in
humidity
%
barometer
mb
20210613194108 87 227 9.0 18.0 0.00 0.00 0.00 71 1012.9
20210613193609 86 245 11.0 17.0 0.00 0.00 0.00 70 1013.0
20210613193105 87 235 12.0 18.0 0.00 0.00 0.00 69 1013.0
20210613192109 87 222 10.0 17.0 0.00 0.00 0.00 71 1013.1
20210613191608 87 239 11.0 18.0 0.00 0.00 0.00 68 1013.0
20210613191104 87 221 10.0 17.0 0.00 0.00 0.00 67 1013.0
20210613190604 87 228 10.0 15.0 0.00 0.00 0.00 68 1013.0
20210613190104 87 244 9.0 15.0 0.00 0.00 0.00 68 1013.0
20210613185605 87 216 11.0 16.0 0.00 0.00 0.00 69 1013.0
20210613184606 87 231 10.0 16.0 0.00 0.00 0.00 69 1013.0
20210613184104 87 212 9.0 18.0 0.00 0.00 0.00 69 1013.1
20210613183604 87 219 10.0 17.0 0.00 0.00 0.00 68 1013.1
20210613182606 87 214 11.0 16.0 0.00 0.00 0.00 68 1013.2
20210613181605 87 216 11.0 18.0 0.00 0.00 0.00 67 1013.4
20210613181108 87 227 7.0 12.0 0.00 0.00 0.00 69 1013.4
20210613175604 86 229 10.0 14.0 0.00 0.00 0.00 71 1013.6
20210613175104 86 217 9.0 15.0 0.00 0.00 0.00 72 1013.6
20210613174604 86 223 9.0 16.0 0.00 0.00 0.00 73 1013.7
20210613173605 87 225 10.0 16.0 0.00 0.00 0.00 73 1013.9
20210613173104 86 216 9.0 16.0 0.00 0.00 0.00 72 1013.8
20210613172606 86 221 12.0 18.0 0.00 0.00 0.00 72 1013.8
20210613172104 87 236 10.0 17.0 0.00 0.00 0.00 71 1013.9
20210613171604 87 219 10.0 14.0 0.00 0.00 0.00 72 1013.9
20210613171104 87 212 12.0 15.0 0.00 0.00 0.00 71 1013.8
20210613170108 87 243 7.0 15.0 0.00 0.00 0.00 71 1014.0
20210613165605 86 226 10.0 15.0 0.00 0.00 0.00 72 1013.9
20210613164609 86 237 10.0 14.0 0.00 0.00 0.00 73 1014.0
20210613164104 86 230 12.0 16.0 0.00 0.00 0.00 72 1013.9
20210613163104 86 225 9.0 14.0 0.00 0.00 0.00 71 1013.8
20210613162604 86 215 10.0 15.0 0.00 0.00 0.00 72 1013.9
20210613162104 86 258 9.0 15.0 0.00 0.00 0.00 74 1013.8
20210613161605 86 222 9.0 15.0 0.00 0.00 0.00 72 1013.9
20210613160604 86 245 11.0 16.0 0.00 0.00 0.00 72 1013.9
20210613160104 86 222 8.0 13.0 0.00 0.00 0.00 73 1013.8
20210613154609 86 236 8.0 13.0 0.00 0.00 0.00 72 1013.8
20210613154104 85 244 10.0 15.0 0.00 0.00 0.00 72 1013.8
20210613153604 86 219 9.0 15.0 0.00 0.00 0.00 70 1013.8
20210613153106 86 222 7.0 13.0 0.00 0.00 0.00 72 1013.8
20210613152605 86 217 9.0 14.0 0.00 0.00 0.00 69 1013.7
20210613152105 86 238 7.0 12.0 0.00 0.00 0.00 69 1013.7
20210613151109 86 258 8.0 14.0 0.00 0.00 0.00 69 1013.7
20210613143606 85 200 8.0 12.0 0.00 0.00 0.00 71 1013.5
20210613143104 85 219 6.0 12.0 0.00 0.00 0.00 70 1013.6
20210613142604 85 259 3.0 9.0 0.00 0.00 0.00 70 1013.6
20210613142108 85 225 6.0 10.0 0.00 0.00 0.00 71 1013.6
20210613141105 85 254 7.0 10.0 0.00 0.00 0.00 71 1013.7
20210613140604 85 252 6.0 12.0 0.00 0.00 0.00 69 1013.7
20210613140106 85 230 7.0 12.0 0.00 0.00 0.00 70 1013.7
20210613135608 85 260 7.0 12.0 0.00 0.00 0.00 70 1013.6
20210613134105 85 244 7.0 12.0 0.00 0.00 0.00 69 1013.4
20210613133109 84 243 7.0 12.0 0.00 0.00 0.00 72 1013.4
20210613132605 84 222 6.0 12.0 0.00 0.00 0.00 71 1013.5
20210613132105 84 238 7.0 12.0 0.00 0.00 0.00 70 1013.6
20210613131604 84 244 6.0 12.0 0.00 0.00 0.00 70 1013.7
20210613130605 84 223 6.0 10.0 0.00 0.00 0.00 73 1013.7
20210613125605 84 257 7.0 13.0 0.00 0.00 0.00 72 1013.8
20210613125109 84 220 8.0 12.0 0.00 0.00 0.00 73 1013.7
20210613124109 84 222 9.0 12.0 0.00 0.00 0.00 73 1013.7
20210613123606 84 232 10.0 14.0 0.00 0.00 0.00 74 1013.6
20210613120606 83 225 2.0 9.0 0.00 0.00 0.00 76 1013.2
20210613120106 83 224 6.0 12.0 0.00 0.00 0.00 76 1013.2
20210613115104 83 240 6.0 10.0 0.00 0.00 0.00 75 1013.1
20210613114108 83 235 6.0 9.0 0.00 0.00 0.00 74 1013.2
20210613113604 83 224 7.0 12.0 0.00 0.00 0.00 76 1013.2
20210613113105 83 247 6.0 12.0 0.00 0.00 0.00 76 1013.2
20210613112606 82 231 6.0 12.0 0.00 0.00 0.00 76 1013.2
20210613112105 82 236 7.0 12.0 0.00 0.00 0.00 76 1013.2
20210613111105 82 259 7.0 12.0 0.00 0.00 0.00 76 1013.0
20210613110606 82 250 5.0 13.0 0.00 0.00 0.00 76 1013.0
20210613104609 82 242 6.0 12.0 0.00 0.00 0.00 77 1013.0
20210613104106 82 254 5.0 13.0 0.00 0.00 0.00 77 1012.9
20210613103605 82 252 7.0 13.0 0.00 0.00 0.00 78 1012.9
20210613103106 82 245 7.0 12.0 0.00 0.00 0.00 78 1012.8
20210613102105 82 233 6.0 13.0 0.00 0.00 0.00 79 1012.7
20210613101606 82 238 6.0 10.0 0.00 0.00 0.00 79 1012.6
20210613101104 82 256 6.0 12.0 0.00 0.00 0.00 78 1012.5
20210613100605 82 256 5.0 13.0 0.00 0.00 0.00 78 1012.4
20210613095604 82 255 7.0 12.0 0.00 0.00 0.00 78 1012.3
20210613094605 82 243 5.0 12.0 0.00 0.00 0.00 78 1012.3
20210613094108 82 243 6.0 12.0 0.00 0.00 0.00 77 1012.3
20210613093605 82 238 6.0 12.0 0.00 0.00 0.00 77 1012.3
20210613093104 82 250 8.0 13.0 0.00 0.00 0.00 76 1012.2
20210613092605 82 252 8.0 13.0 0.00 0.00 0.00 77 1012.2
20210613092104 82 247 5.0 12.0 0.00 0.00 0.00 77 1012.2
20210613091105 82 254 10.0 13.0 0.00 0.00 0.00 77 1012.0
20210613090605 82 235 7.0 13.0 0.00 0.00 0.00 77 1012.0
20210613090105 82 239 7.0 12.0 0.00 0.00 0.00 77 1011.9
20210613085605 82 254 10.0 14.0 0.00 0.00 0.00 78 1011.8
20210613085104 82 246 4.0 10.0 0.00 0.00 0.00 79 1011.8
20210613084609 82 227 5.0 12.0 0.00 0.00 0.00 79 1011.7
20210613083104 82 221 5.0 12.0 0.00 0.00 0.00 79 1011.6
20210613082604 82 223 6.0 12.0 0.00 0.00 0.00 78 1011.6
20210613082105 82 225 6.0 12.0 0.00 0.00 0.00 78 1011.6
20210613081108 82 248 7.0 12.0 0.00 0.00 0.00 77 1011.5
20210613080605 82 249 5.0 12.0 0.00 0.00 0.00 77 1011.5
20210613080105 82 247 8.0 12.0 0.00 0.00 0.00 77 1011.6
20210613075104 82 257 6.0 10.0 0.00 0.00 0.00 77 1011.7
20210613074604 82 250 5.0 12.0 0.00 0.00 0.00 78 1011.6
20210613074105 82 236 4.0 8.0 0.00 0.00 0.00 78 1011.7
20210613073109 82 251 8.0 12.0 0.00 0.00 0.00 77 1011.8
20210613072605 82 255 7.0 10.0 0.00 0.00 0.00 77 1011.9
20210613072104 82 259 6.0 12.0 0.00 0.00 0.00 76 1011.9
20210613071106 83 254 5.0 12.0 0.00 0.00 0.00 75 1012.0
20210613070604 83 254 9.0 14.0 0.00 0.00 0.00 76 1012.1
20210613065605 83 251 10.0 14.0 0.00 0.00 0.00 75 1012.1
20210613064605 83 255 7.0 12.0 0.00 0.00 0.00 75 1012.4
20210613064104 83 258 8.0 12.0 0.00 0.00 0.00 76 1012.4
20210613063605 82 259 7.0 12.0 0.00 0.00 0.00 77 1012.4
20210613063104 82 235 6.0 10.0 0.00 0.00 0.00 77 1012.4
20210613061604 83 227 6.0 12.0 0.00 0.00 0.00 76 1012.4
20210613061106 83 232 7.0 13.0 0.00 0.00 0.00 76 1012.5
20210613060609 83 259 7.0 12.0 0.00 0.00 0.00 76 1012.5
20210613055607 83 255 5.0 12.0 0.00 0.00 0.00 76 1012.8
20210613054605 83 257 7.0 14.0 0.00 0.00 0.00 76 1012.8
20210613054105 83 256 7.0 13.0 0.00 0.00 0.00 76 1012.8
20210613052105 83 248 8.0 12.0 0.00 0.00 0.00 76 1013.0
20210613051105 83 246 7.0 12.0 0.00 0.00 0.00 76 1013.1
20210613050605 83 250 10.0 13.0 0.00 0.00 0.00 78 1013.1
20210613050106 83 247 7.0 10.0 0.00 0.00 0.00 78 1013.2
20210613045605 83 240 7.0 14.0 0.00 0.00 0.00 77 1013.4
20210613045109 83 250 6.0 12.0 0.00 0.00 0.00 78 1013.5
20210613043605 83 259 7.0 13.0 0.00 0.00 0.00 79 1013.6
20210613043105 83 249 5.0 9.0 0.00 0.00 0.00 80 1013.6
20210613042605 83 249 5.0 12.0 0.00 0.00 0.00 79 1013.7
20210613041604 83 260 7.0 12.0 0.00 0.00 0.00 80 1013.9
20210613041119 83 254 6.0 12.0 0.00 0.00 0.00 80 1013.9
20210613035608 83 252 7.0 12.0 0.00 0.00 0.00 80 1013.9
20210613035106 83 242 7.0 10.0 0.00 0.00 0.00 80 1013.8
20210613034604 83 239 3.0 8.0 0.00 0.00 0.00 80 1013.8
20210613034105 83 226 3.0 7.0 0.00 0.00 0.00 80 1013.7
20210613032105 83 243 1.0 6.0 0.00 0.00 0.00 80 1013.6
20210613031604 83 225 3.0 5.0 0.00 0.00 0.00 80 1013.6
20210613030604 83 248 5.0 8.0 0.00 0.00 0.00 80 1013.6
20210613030105 83 223 6.0 8.0 0.00 0.00 0.00 80 1013.5
20210613025604 83 223 4.0 7.0 0.00 0.00 0.00 80 1013.3
20210613023605 83 234 2.0 7.0 0.00 0.00 0.00 81 1013.1
20210613022105 83 227 5.0 8.0 0.00 0.00 0.00 80 1013.1
20210613021605 83 234 3.0 7.0 0.00 0.00 0.00 80 1012.9
20210613021104 83 246 3.0 7.0 0.00 0.00 0.00 80 1012.9
20210613020105 84 228 3.0 8.0 0.00 0.00 0.00 80 1012.7
20210613014105 84 240 5.0 9.0 0.00 0.00 0.00 80 1012.8
20210613013604 84 237 7.0 12.0 0.00 0.00 0.00 80 1012.8
20210613012605 84 230 1.0 7.0 0.00 0.00 0.00 79 1012.6
20210613011108 84 225 6.0 12.0 0.00 0.00 0.00 78 1012.6
20210613010607 84 256 5.0 10.0 0.00 0.00 0.00 78 1012.5
20210613004605 84 248 6.0 12.0 0.00 0.00 0.00 78 1012.5
20210613004105 84 237 7.0 12.0 0.00 0.00 0.00 77 1012.6
20210613002108 84 265 8.0 13.0 0.00 0.00 0.00 76 1012.3
20210613000604 84 238 7.0 12.0 0.00 0.00 0.00 76 1012.3
20210613000104 85 257 9.0 13.0 0.00 0.00 0.00 76 1012.3
20210612235108 85 232 7.0 12.0 0.00 0.00 0.00 76 1012.2
20210612234604 85 250 9.0 13.0 0.00 0.00 0.00 77 1012.1
20210612234104 85 256 9.0 16.0 0.00 0.00 0.00 77 1012.2
20210612233605 85 259 9.0 12.0 0.00 0.00 0.00 76 1012.4
20210612233105 85 263 8.0 13.0 0.00 0.00 0.00 75 1012.3
20210612232604 85 239 9.0 13.0 0.00 0.00 0.00 75 1012.3
20210612232105 85 243 7.0 12.0 0.00 0.00 0.00 75 1012.2
20210612231105 85 243 7.0 12.0 0.00 0.00 0.00 78 1012.0
20210612230604 85 247 7.0 13.0 0.00 0.00 0.00 76 1012.0
20210612225604 86 239 7.0 13.0 0.00 0.00 0.00 75 1011.9
20210612224608 86 233 7.0 12.0 0.00 0.00 0.00 75 1012.0
20210612223604 85 236 9.0 14.0 0.00 0.00 0.00 77 1011.9
20210612222605 85 265 8.0 13.0 0.00 0.00 0.00 76 1011.9
20210612222105 86 265 8.0 12.0 0.00 0.00 0.00 75 1011.9
20210612221606 86 244 8.0 12.0 0.00 0.00 0.00 75 1011.8
20210612220604 86 239 6.0 12.0 0.00 0.00 0.00 78 1011.8
20210612220104 86 219 10.0 14.0 0.00 0.00 0.00 77 1011.6
20210612215106 86 227 6.0 10.0 0.00 0.00 0.00 76 1011.6
20210612214105 86 239 9.0 14.0 0.00 0.00 0.00 75 1011.7
20210612213608 86 228 8.0 13.0 0.00 0.00 0.00 75 1011.7
20210612213104 86 238 7.0 12.0 0.00 0.00 0.00 74 1011.7
20210612212104 86 234 9.0 15.0 0.00 0.00 0.00 76 1012.0
20210612211608 86 251 8.0 14.0 0.00 0.00 0.00 77 1012.1
20210612211108 86 246 9.0 14.0 0.00 0.00 0.00 77 1012.1
20210612210608 86 253 10.0 17.0 0.00 0.00 0.00 75 1012.1
20210612210107 86 237 7.0 13.0 0.00 0.00 0.00 75 1012.1
20210612205604 87 244 9.0 13.0 0.00 0.00 0.00 75 1012.2
20210612205104 87 265 8.0 14.0 0.00 0.00 0.00 75 1012.3
20210612204104 86 254 10.0 15.0 0.00 0.00 0.00 75 1012.3
20210612203604 86 238 10.0 15.0 0.00 0.00 0.00 76 1012.2
20210612203108 86 258 11.0 15.0 0.00 0.00 0.00 76 1012.3
20210612202604 86 238 10.0 17.0 0.00 0.00 0.00 76 1012.5
20210612202105 86 243 11.0 17.0 0.00 0.00 0.00 75 1012.5
20210612201104 87 256 9.0 15.0 0.00 0.00 0.00 74 1012.8
20210612200607 87 249 10.0 15.0 0.00 0.00 0.00 73 1012.8
20210612200104 87 233 11.0 15.0 0.00 0.00 0.00 74 1012.8
20210612195105 87 237 9.0 15.0 0.00 0.00 0.00 74 1013.0
20210612194604 87 228 11.0 17.0 0.00 0.00 0.00 75 1013.0